Regional Weather Roundup
Issued by NWS

Home | Current Version | Previous Version | Text Only | Print | Product List | Glossary On
Versions: 1 2 3 4 5 6 7 8 9 10 11 12 13 14 15 16 17 18 19 20 21 22 23 24 25 26 27 28 29 30 31 32 33 34 35 36 37 38 39 40 41 42 43 44 45 46 47 48 49 50
000
ASUS45 KTFX 311019
RWRMT
MONTANA HOURLY WEATHER ROUNDUP
NATIONAL WEATHER SERVICE GREAT FALLS MT
419 AM MDT FRI OCT 31 2014

NOTE: "FAIR" INDICATES FEW OR NO CLOUDS BELOW 12000 FEET WITH NO
SIGNIFICANT WEATHER AND/OR OBSTRUCTIONS TO VISIBILITY.

* THESE STATIONS ARE NOT UNDER NWS QUALITY CONTROL. THEY DO NOT
   REPORT WEATHER SUCH AS PRECIPITATION OR FOG.

MTZ001>007-043-311100-
WEST OF THE DIVIDE
CITY           SKY/WX    TMP DP  RH WIND       PRES   REMARKS
KALISPELL      FOG       36  36 100 CALM      29.89F VSB M1/4
MISSOULA       FOG       36  36 100 CALM      29.91F VSB 1/2
BUTTE          CLOUDY    34  28  79 CALM      30.02F
MULLAN PASS    CLOUDY    41  36  82 S9G17     29.87F
* DEER LODGE   CLOUDY    52  30  43 S10        N/A
* ESSEX        N/A       39  35  86 SE12G18    N/A   WCI  32
* HAMILTON APT CLOUDY    37  36  96 N/A        N/A
* LIBBY APT    CLOUDY    43  41  93 N/A        N/A
* LINCOLN      N/A       30  29  96 NE1G6      N/A
* LOOKOUT PASS N/A       38  38 100 S6G13      N/A   WCI  33
* POLSON       N/A       40  40 100 N/A        N/A
* RONAN APT    CLOUDY    43  41  93 N/A        N/A
* SEELEY LAKE  N/A       32  31  96 N1         N/A
* THOMP F APT  CLOUDY    51  28  41 SE6G16     N/A
* YAAK HILL    N/A       42  40  93 NE1        N/A
$$

MTZ008-052>055-311100-
SOUTHWEST MONTANA
CITY           SKY/WX    TMP DP  RH WIND       PRES   REMARKS
BOZEMAN        PTCLDY    36  28  73 NW5       30.02F WCI  32
DILLON         MOCLDY    37  28  70 S5        30.02F WCI  33
W YELLOWSTONE  MOCLDY    25  25 100 CALM      30.15F
* ENNIS APT    PTCLDY    45  28  51 N/A        N/A
* THREE FORKS  MOCLDY    30  30 100 N/A        N/A
* BOULDER HILL N/A       38  24  57 S11        N/A   WCI  31
* MONIDA PASS  N/A       42  28  58 SE6        N/A
* RAYNOLDS PAS N/A       40  23  51 SE16       N/A   WCI  32
* WHITEHALL    N/A       31  27  85 NE1        N/A
* WISE RIVER   N/A       32  30  92 S2         N/A
$$

MTZ009>010-012-014-046-048-049-054-311100-
EAST SLOPES AND CENTRAL MONTANA
CITY           SKY/WX    TMP DP  RH WIND       PRES   REMARKS
CUT BANK       FOG       32  30  92 E7        29.90F WCI  25
GREAT FALLS    PTCLDY    52  30  43 S18       29.91F
HELENA         MOCLDY    37  34  89 CALM      29.99F
MALMSTROM AFB  PTCLDY    36  32  85 E3        29.94F
* DEARBORN     N/A       46  32  58 SE1G9      N/A
* EAST GLACIER N/A       36  31  82 NW4        N/A
* MONARCH      N/A       53  22  30 S15        N/A
* ROGERS PASS  N/A       46  28  50 NW4        N/A
* SAINT MARY   N/A       35  31  85 S3         N/A
* SWEET GRASS  N/A       36  34  92 S26G31     N/A   WCI  24
* WHITE SULPH  N/A       38  30  73 E9G14      N/A   WCI  32
$$

MTZ011-013-016-021-035-040-045-047-050-051-311100-
NORTH CENTRAL MONTANA
CITY           SKY/WX    TMP DP  RH WIND       PRES   REMARKS
HAVRE          PTCLDY    34  30  85 E16       29.95F WCI  24
LEWISTOWN      MOCLDY    45  30  56 SE12      30.00F
* N BAR RANCH  CLEAR     43  30  60 E7        30.08F
* FORT BENTON  PTCLDY    43  32  65 NE3       29.95F
* CHESTER      N/A       38  31  76 SE5G10     N/A   WCI  34
* DENTON       N/A       50  32  50 SE13G18    N/A
* GEYSER       N/A       33  29  85 S2         N/A
* JUDITH GAP   N/A       36  32  85 SW12       N/A   WCI  28
* LOMA         N/A       38  32  79 E17G24     N/A   WCI  29
$$

MTZ017>020-022>027-061-062-311100-
NORTHEAST MONTANA
CITY           SKY/WX    TMP DP  RH WIND       PRES   REMARKS
GLASGOW        MOCLDY    34  28  79 SE22G30   30.20F WCI  22
GLENDIVE       CLOUDY    34  28  79 S15G20    30.33F WCI  24
JORDAN         PTCLDY    32  28  85 SE13      30.17F WCI  22
SIDNEY         CLOUDY    34  27  76 SE17G28   30.38F WCI  23
WOLF POINT     CLOUDY    36  28  73 SE14G23   30.29F WCI  27
* BEAVER HILL  N/A       31  28  89 SE22G32    N/A   WCI  18
* CIRCLE       N/A       33  30  89 SE10G20    N/A   WCI  25
* LINDSAY DVD  N/A       31  29  92 SE21G28    N/A   WCI  18
* NAVAJO       N/A       29  26  89 S17G22     N/A   WCI  17
* PLENTYWOOD A N/A       28  25  89 SE17G22    N/A   WCI  16
* POPLAR APT   N/A      N/A N/A N/A N/A        N/A
* SCOBEY APT   CLEAR     30  25  82 SE22G29    N/A   WCI  17
$$

MTZ028>042-056>058-311100-
SOUTHCENTRAL AND SOUTHEAST MONTANA
CITY           SKY/WX    TMP DP  RH WIND       PRES   REMARKS
BAKER          CLOUDY    32  28  85 SE28G39   30.33F WCI  18
BILLINGS       MOCLDY    37  30  76 N5        30.07F WCI  33
LIVINGSTON     MOCLDY    36  28  73 CALM      30.07F
MILES CITY     CLEAR     34  30  85 SE21G26   30.25F WCI  22
* FORSYTH APT  CLEAR     34  30  85 E10        N/A   WCI  26
* LAUREL APT   MOCLDY    37  25  62 N/A        N/A
* ROUNDUP APT  MOCLDY    34  28  79 N/A        N/A
* ALZADA       N/A       30  29  96 E15        N/A   WCI  19
* HYSHAM       N/A       42  30  63 E8         N/A
* LAME DEER    N/A       36  30  79 N/A        N/A
* REED POINT   N/A       32  30  92 N/A        N/A
* ROSCOE HILL  N/A       38  24  57 SW2        N/A
$$

REGIONAL REPORTS...DAKOTAS
CITY           SKY/WX    TMP DP  RH WIND       PRES   REMARKS
WILLISTON      CLOUDY    30  23  75 SE13      30.41F WCI  20
DICKINSON      CLOUDY    28  23  81 S25       30.41F WCI  13
BEACH          N/A       30  30 100 SE21G29   30.35F WCI  17
CROSBY         CLEAR     25  23  92 S16G21    30.40F WCI  12
TIOGA          MOCLDY    25  25 100 S20G28    30.43F WCI  11
BISMARCK       PTCLDY    14  12  92 E6        30.56F WCI   5
GRAND FORKS    CLEAR     12  10  92 NW3       30.60S
FARGO          CLEAR     16  12  84 NW5       30.59S WCI   8
BUFFALO SD     CLOUDY    30  28  92 SE20      30.33F WCI  17
RAPID CITY     FOG       30  30 100 S12       30.44F VSB 3    WCI  20
$$

REGIONAL REPORTS...WYOMING/IDAHO/WASHINGTON
CITY           SKY/WX    TMP DP  RH WIND       PRES   REMARKS
GILLETTE       CLEAR     34  28  79 S29G35    30.23F WCI  20
SHERIDAN       PTCLDY    43  27  53 SE9       30.13F
CODY           MOCLDY    43  28  56 SE13      30.11F
YELLOWSTONE LA PTCLDY    27  27 100 CALM      30.23F
SALMON         MOCLDY    36  34  92 CALM      29.98F
MULLAN PASS    CLOUDY    41  36  82 S9G17     29.87S
SAND POINT     CLOUDY    45  45 100 NE7       29.80F
SPOKANE        CLOUDY    48  43  83 SE6       29.78R
$$

REGIONAL REPORTS...ALBERTA
CITY           SKY/WX    TMP DP  RH WIND       PRES   REMARKS
LETHBRIDGE     FAIR      39  36  89 S3        29.82F
MEDICINE HAT   CLEAR     48  34  59 S22G32    29.84F
EDMONTON       MOCLDY    37  34  89 SE15G22   29.68F WCI  28
WATERTON GATE  N/A       32  28  85 NE2        N/A
CARDSTON       N/A       41  36  82 SE8        N/A
MILK RIVER     N/A       37  34  89 S16        N/A   WCI  28
$$

REGIONAL REPORTS...SASKATCHEWAN
CITY           SKY/WX    TMP DP  RH WIND       PRES   REMARKS
SWIFT CURRENT  CLOUDY    34  30  85 S31G43    30.02F WCI  20
MOOSE JAW      CLOUDY    30  27  89 SE14G20   30.23F WCI  19
REGINA         PTCLDY    23  21  92 SE23G33   30.31F WCI   7
VAL MARIE      N/A       34  30  85 S15G21     N/A   WCI  24
ASSINIBOIA     N/A       34  27  76 SE17G26    N/A   WCI  23

$$




USA.gov is the U.S. government's official web portal to all federal, state and local government web resources and services.